Вернуться в каталог

COSMOS 2477

GLONASS

АктивенНавигацияMEO
NORAD 37868·PAYLOAD·🇷🇺 Russia

Запущен Nov 4, 2011 с Baikonur Cosmodrome

Loading…

Ближайшие Пролёты (ближайшие 24 часа)

TLE

СвежийSource: CelesTrak SupGP

Эпоха: Sep 13, 2026, 23:59 UTC

1 37868C 11064B   26256.99979167  .00000000  00000+0  00000+0 0  2566
2 37868  65.3320  69.9557 0019697 230.5523 208.4784  2.13102984    10

Отслеживайте COSMOS 2477 в реальном времени с AllMySat

Download on the App Store